Tracking 19176 objects as of 26-May-2018
HD Live streaming from Space Station
objects crossing your sky now

CZ-2D DEB

Track CZ-2D DEB now!
10-day predictions


NORAD ID: 35272
Int'l Code: 2005-024L
Perigee: 513.4 km
Apogee: 533.9 km
Inclination: 97.5 °
Period: 95.0 minutes
Semi major axis: 6894 km
RCS: 0.0215 m2 (small)
Launch date: July 5, 2005
Source: People's Republic of China (PRC)
Launch site: Jiuquan Satellite Launch Center, China (JSC)

Note: This is SATELLITE DEBRIS
aabbcc
Your satellite tracking list
Your tracking list is empty




NASA's NSSDC Master Catalog

Two Line Element Set (TLE):
1 35272U 05024L   18145.34818347 +.00000355 +00000-0 +21638-4 0  9994
2 35272 097.5119 190.0726 0014914 108.5296 308.0364 15.16469745689799
Source of the keplerian elements: AFSPC